• In Netherlands
  • List of Countries
  • For 7 days
  • Water Temperature
  • Satellite Maps
  • Weather Map
  • Weather Widgets
  • user-avatar
    Login

    Hourly Weather Chakhansur

    Today, 26 March, Sunday

    Time Temperature Precipitation Wind Pressure Humidity
    00:00 +28°C° 0 mm 2 mps 717 mmHg 33%
    01:00 +27°C° 0 mm 3 mps 716 mmHg 34%
    02:00 +27°C° 0.1 mm 3 mps 716 mmHg 37%
    03:00 +26°C° 0.1 mm 3 mps 716 mmHg 40%
    04:00 +25°C° 0 mm 4 mps 717 mmHg 46%
    05:00 +25°C° 0 mm 4 mps 717 mmHg 47%
    06:00 +25°C° 0 mm 4 mps 718 mmHg 47%
    07:00 +25°C° 0 mm 4 mps 718 mmHg 47%
    08:00 +26°C° 0 mm 5 mps 718 mmHg 42%
    09:00 +28°C° 0 mm 7 mps 719 mmHg 36%
    10:00 +29°C° 0 mm 6 mps 720 mmHg 33%
    11:00 +29°C° 0 mm 6 mps 719 mmHg 31%
    12:00 +30°C° 0 mm 6 mps 719 mmHg 29%
    13:00 +32°C° 0 mm 6 mps 719 mmHg 27%
    14:00 +32°C° 0 mm 5 mps 718 mmHg 27%
    15:00 +32°C° 0 mm 5 mps 718 mmHg 27%
    16:00 +32°C° 0 mm 4 mps 718 mmHg 25%
    17:00 +30°C° 0.2 mm 4 mps 718 mmHg 29%
    18:00 +29°C° 0.2 mm 4 mps 718 mmHg 32%
    19:00 +28°C° 0.2 mm 4 mps 718 mmHg 35%
    20:00 +27°C° 0.3 mm 4 mps 718 mmHg 37%
    21:00 +27°C° 0.3 mm 3 mps 718 mmHg 39%
    22:00 +26°C° 0.3 mm 3 mps 718 mmHg 42%
    23:00 +26°C° 0.2 mm 3 mps 718 mmHg 43%

    Tomorrow, 27 March, Monday

    Time Temperature Precipitation Wind Pressure Humidity
    00:00 +25°C° 0.2 mm 3 mps 718 mmHg 45%
    01:00 +25°C° 0.2 mm 3 mps 718 mmHg 47%
    02:00 +24°C° 0 mm 3 mps 718 mmHg 48%
    03:00 +24°C° 0 mm 3 mps 718 mmHg 50%
    04:00 +24°C° 0 mm 3 mps 718 mmHg 51%
    05:00 +24°C° 0 mm 2 mps 718 mmHg 51%
    06:00 +24°C° 0 mm 2 mps 719 mmHg 51%
    07:00 +24°C° 0 mm 2 mps 719 mmHg 51%
    08:00 +25°C° 0 mm 2 mps 719 mmHg 47%
    09:00 +26°C° 0 mm 2 mps 720 mmHg 43%
    10:00 +28°C° 0 mm 2 mps 720 mmHg 39%
    11:00 +28°C° 0 mm 2 mps 720 mmHg 37%
    12:00 +29°C° 0 mm 2 mps 719 mmHg 34%
    13:00 +30°C° 0 mm 1 mps 719 mmHg 32%
    14:00 +30°C° 0 mm 1 mps 719 mmHg 31%
    15:00 +31°C° 0 mm 1 mps 718 mmHg 30%
    16:00 +31°C° 0 mm 1 mps 718 mmHg 29%
    17:00 +31°C° 0 mm 2 mps 718 mmHg 30%
    18:00 +30°C° 0 mm 2 mps 718 mmHg 31%
    19:00 +30°C° 0 mm 2 mps 719 mmHg 33%
    20:00 +30°C° 0 mm 2 mps 719 mmHg 34%
    21:00 +29°C° 0 mm 2 mps 719 mmHg 35%
    22:00 +29°C° 0 mm 1 mps 719 mmHg 36%
    23:00 +28°C° 0 mm 1 mps 719 mmHg 38%

    Day after tomorrow, 28 March, Tuesday

    Time Temperature Precipitation Wind Pressure Humidity
    00:00 +28°C° 0 mm 1 mps 718 mmHg 39%
    01:00 +27°C° 0 mm 1 mps 718 mmHg 40%
    02:00 +27°C° 0.1 mm 1 mps 718 mmHg 42%
    03:00 +26°C° 0.1 mm 1 mps 717 mmHg 44%
    04:00 +26°C° 0.1 mm 1 mps 717 mmHg 46%
    05:00 +26°C° 0 mm 1 mps 718 mmHg 45%
    06:00 +26°C° 0 mm 2 mps 718 mmHg 45%
    07:00 +26°C° 0 mm 2 mps 718 mmHg 44%
    08:00 +27°C° 0.1 mm 2 mps 719 mmHg 41%
    09:00 +28°C° 0.1 mm 2 mps 719 mmHg 38%
    10:00 +29°C° 0.1 mm 2 mps 719 mmHg 35%
    11:00 +30°C° 0 mm 1 mps 719 mmHg 33%
    12:00 +31°C° 0 mm 1 mps 719 mmHg 31%
    13:00 +31°C° 0 mm 1 mps 718 mmHg 29%
    14:00 +32°C° 0 mm 1 mps 718 mmHg 28%
    15:00 +32°C° 0 mm 1 mps 717 mmHg 27%
    16:00 +32°C° 0 mm 2 mps 717 mmHg 26%
    17:00 +32°C° 0 mm 2 mps 717 mmHg 27%
    18:00 +31°C° 0 mm 2 mps 717 mmHg 28%
    19:00 +31°C° 0 mm 2 mps 718 mmHg 30%
    20:00 +30°C° 0 mm 2 mps 718 mmHg 31%
    21:00 +30°C° 0 mm 2 mps 718 mmHg 32%
    22:00 +29°C° 0 mm 2 mps 718 mmHg 34%
    23:00 +28°C° 0 mm 2 mps 718 mmHg 35%

    29 March, Wednesday

    Time Temperature Precipitation Wind Pressure Humidity
    00:00 +28°C° 0 mm 2 mps 718 mmHg 37%
    01:00 +27°C° 0 mm 2 mps 717 mmHg 38%
    02:00 +27°C° 0 mm 2 mps 717 mmHg 39%
    03:00 +26°C° 0 mm 2 mps 717 mmHg 40%
    04:00 +26°C° 0 mm 1 mps 717 mmHg 41%
    05:00 +26°C° 0 mm 2 mps 717 mmHg 41%
    06:00 +26°C° 0 mm 2 mps 717 mmHg 40%
    07:00 +26°C° 0 mm 2 mps 718 mmHg 39%
    08:00 +28°C° 0 mm 2 mps 718 mmHg 35%
    09:00 +30°C° 0 mm 2 mps 718 mmHg 31%
    10:00 +31°C° 0 mm 2 mps 719 mmHg 27%
    11:00 +32°C° 0 mm 2 mps 718 mmHg 25%
    12:00 +34°C° 0 mm 2 mps 717 mmHg 22%
    13:00 +35°C° 0 mm 2 mps 717 mmHg 19%
    14:00 +35°C° 0 mm 2 mps 716 mmHg 18%
    15:00 +35°C° 0 mm 2 mps 716 mmHg 17%
    16:00 +36°C° 0 mm 2 mps 715 mmHg 15%
    17:00 +35°C° 0 mm 2 mps 715 mmHg 17%
    18:00 +34°C° 0 mm 2 mps 715 mmHg 18%
    19:00 +32°C° 0 mm 1 mps 715 mmHg 19%
    20:00 +31°C° 0 mm 1 mps 716 mmHg 20%
    21:00 +30°C° 0 mm 1 mps 716 mmHg 22%
    22:00 +30°C° 0 mm 1 mps 716 mmHg 23%
    23:00 +29°C° 0 mm 1 mps 716 mmHg 23%

    30 March, Thursday

    Time Temperature Precipitation Wind Pressure Humidity
    00:00 +29°C° 0 mm 1 mps 716 mmHg 24%
    01:00 +28°C° 0 mm 1 mps 716 mmHg 25%
    02:00 +28°C° 0 mm 1 mps 716 mmHg 25%
    03:00 +27°C° 0 mm 2 mps 716 mmHg 26%
    04:00 +27°C° 0 mm 2 mps 716 mmHg 26%
    05:00 +27°C° 0 mm 3 mps 716 mmHg 28%
    06:00 +26°C° 0 mm 5 mps 717 mmHg 30%
    07:00 +26°C° 0 mm 6 mps 718 mmHg 32%
    08:00 +27°C° 0 mm 7 mps 718 mmHg 31%
    09:00 +28°C° 0 mm 8 mps 719 mmHg 30%
    10:00 +29°C° 0 mm 9 mps 719 mmHg 30%
    11:00 +31°C° 0 mm 9 mps 719 mmHg 28%
    12:00 +32°C° 0 mm 9 mps 719 mmHg 26%
    13:00 +33°C° 0 mm 9 mps 718 mmHg 24%
    14:00 +33°C° 0 mm 8 mps 718 mmHg 23%
    15:00 +33°C° 0 mm 8 mps 718 mmHg 22%
    16:00 +33°C° 0 mm 8 mps 718 mmHg 21%
    17:00 +32°C° 0 mm 8 mps 718 mmHg 23%
    18:00 +31°C° 0 mm 8 mps 718 mmHg 24%
    19:00 +29°C° 0 mm 8 mps 718 mmHg 26%
    20:00 +28°C° 0 mm 8 mps 718 mmHg 28%
    21:00 +27°C° 0 mm 8 mps 719 mmHg 30%
    22:00 +26°C° 0 mm 8 mps 719 mmHg 32%
    23:00 +24°C° 0 mm 8 mps 719 mmHg 34%

    31 March, Friday

    Time Temperature Precipitation Wind Pressure Humidity
    00:00 +23°C° 0 mm 8 mps 718 mmHg 35%
    01:00 +22°C° 0 mm 9 mps 718 mmHg 37%
    02:00 +22°C° 0 mm 8 mps 718 mmHg 38%
    03:00 +21°C° 0 mm 7 mps 718 mmHg 39%
    04:00 +20°C° 0 mm 7 mps 718 mmHg 41%
    05:00 +20°C° 0 mm 6 mps 718 mmHg 41%
    06:00 +20°C° 0 mm 6 mps 719 mmHg 42%
    07:00 +20°C° 0 mm 5 mps 719 mmHg 42%
    08:00 +21°C° 0 mm 5 mps 719 mmHg 38%
    09:00 +23°C° 0 mm 4 mps 720 mmHg 34%
    10:00 +25°C° 0 mm 4 mps 720 mmHg 30%
    11:00 +27°C° 0 mm 4 mps 719 mmHg 27%
    12:00 +28°C° 0 mm 3 mps 719 mmHg 24%
    13:00 +30°C° 0 mm 3 mps 719 mmHg 21%
    14:00 +30°C° 0 mm 3 mps 718 mmHg 20%
    15:00 +31°C° 0 mm 3 mps 718 mmHg 19%
    16:00 +31°C° 0 mm 2 mps 717 mmHg 18%
    17:00 +31°C° 0 mm 2 mps 718 mmHg 20%
    18:00 +30°C° 0 mm 1 mps 718 mmHg 21%
    19:00 +29°C° 0 mm 1 mps 718 mmHg 23%
    20:00 +28°C° 0 mm 1 mps 718 mmHg 23%
    21:00 +28°C° 0 mm 1 mps 718 mmHg 24%
    22:00 +27°C° 0 mm 1 mps 719 mmHg 24%
    23:00 +27°C° 0 mm 2 mps 719 mmHg 25%
    Show more